Simultaneous Nadir Overpasses (SNOs) Predictions

Prediction of SNOs between AQUA and METOP-B Satellite Orbit:

Table of predicted SNOs for the next 14.0 days since TLE Epoch: 2/15/2025
Index Date (AQUA) Time (AQUA) Lat,Lon (AQUA) SZA (AQUA ) Date (METOP-B) Time (METOP-B) Lat,Lon (METOP-B) SZA (METOP-B ) Distance(km) Time Diff (sec)
1 02/15/2025 05:02:59 -76.95, -77.16 90.49 02/15/2025 05:02:13 -76.93, -77.10 90.51 3.01 46
2 02/15/2025 05:52:19 76.97, 90.45 89.52 02/15/2025 05:52:52 76.97, 90.41 89.53 1.18 33
3 02/17/2025 17:52:26 -76.93, 90.60 91.39 02/17/2025 17:51:18 -76.91, 90.54 91.40 2.69 68
4 02/17/2025 18:41:46 76.96,-101.81 88.62 02/17/2025 18:41:57 76.96,-101.96 88.63 3.66 11
5 02/20/2025 07:31:13 76.98, 65.79 87.75 02/20/2025 07:31:02 76.97, 65.80 87.74 0.99 11
6 02/20/2025 08:20:32 -77.00,-126.61 92.25 02/20/2025 08:21:43 -77.01,-126.71 92.24 2.98 71
7 02/22/2025 20:20:38 77.00,-126.57 86.84 02/22/2025 20:20:07 76.98,-126.48 86.82 3.20 31
8 02/22/2025 21:09:57 -77.01, 41.05 93.16 02/22/2025 21:10:48 -77.02, 41.01 93.16 1.11 51
9 02/25/2025 09:10:00 76.96, 41.30 85.86 02/25/2025 09:09:12 76.97, 41.20 85.88 2.70 48
10 02/25/2025 09:59:20 -77.02,-151.25 94.09 02/25/2025 09:59:53 -77.01,-151.31 94.10 1.47 33
11 02/27/2025 21:59:22 77.01,-151.16 84.96 02/27/2025 21:58:16 77.00,-150.98 84.95 4.34 66
12 02/27/2025 22:48:41 -77.02, 16.48 95.05 02/27/2025 22:48:57 -77.04, 16.51 95.03 2.96 16



Historial Predications of SNOs between AQUA and METOP-B
